Location: Lane
(33.5226°N, 79.8788°W)
Time: 10:22:51
(UTC+00:00)

Altair - Pass Details

Date: 09 October 2022
Orbit: 1501 x 1682 km, 47.2° (Epoch: 30 November)

Event Time Altitude Azimuth Distance (km) Brightness Sun altitude
Rises 12:04:07 0° 294° (WNW) 4,813 9.4 8.3°
Reaches altitude 10° 12:07:33 10° 303° (WNW) 3,853 9.1 9.0°
Maximum altitude 12:16:37 38° 9° (N) 2,339 8.6 10.8°
Drops below altitude 10° 12:25:52 10° 75° (ENE) 3,940 10.8 12.6°
Sets 12:29:25 0° 83° (E) 4,932 11.5 13.4°
